sat.trackr.live / text

‹ back to catalog

UMBRA-09

NORAD 60541 · 2024-149CB

PAYLOAD ACTIVE UNKNOWN

§ Identity

Operator
Country
US
Launch date
2024-08-16
Launch site
AFWTR
Launch vehicle
Mass (kg)
RCS (m²)

External: N2YO · Heavens-Above · Gunter

§ Orbital elements

Epoch: 2026-05-25T04:31:58.184832Z

Period
94.91 min
Inclination
97.6922°
Eccentricity
0.0001397
Mean motion
15.17229840 rev/d
Perigee alt
513.3 km
Apogee alt
515.2 km
Semi-major
6,892.4 km
B*
9.3323e-4
RAAN
232.0088°
Arg perigee
121.9439°
Mean anomaly
238.1930°
Rev number
9,723

§ Raw data

UMBRA-091 60541U 24149CB  26145.18886788  .00018525  00000+0  93323-3 0  99912 60541  97.6922 232.0088 0001397 121.9439 238.1930 15.17229840 97231

JSON: /api/v1/satellites/60541 · /tle

For live sub-satellite position, see the globe view (requires WebGL).

§ Visibility from observer

Set your observer location to see the next 7 days of passes ≥ 10°. The values pass through the URL so the page stays shareable.

No JS? Fill the form by hand. The geolocation button needs JavaScript.